Green Bay, WI

10:17 AM CST on January 16, 2017 (GMT -0600)
Austin Straubel International

Weather History for KGRB - June, 2013

Change the Weather History Date:

Thursday, June 6, 2013

  Actual Average Record
Temperature  
Mean Temperature 54 °F 62 °F  
Max Temperature 57 °F 73 °F 93 °F (1988)
Min Temperature 51 °F 51 °F 32 °F (1958)
Degree Days  
Heating Degree Days 11 5  
Month to date heating degree days 51 32  
Since 1 June heating degree days 51 32  
Since 1 July heating degree days 7693 7895  
Cooling Degree Days 0 2  
Month to date cooling degree days 3 7  
Year to date cooling degree days 41 25  
Since 1 June cooling degree days 3 7  
Growing Degree Days 4 (Base 50)    
Moisture  
Dew Point 48 °F    
Average Humidity 77    
Maximum Humidity 93    
Minimum Humidity 61    
Precipitation  
Precipitation 0.31 in 0.13 in 1.63 in (1914)
Month to date precipitation 1.16 0.77  
Year to date precipitation 14.93 10.42  
Snow  
Snow 0.00 in 0.00 in 0.00 in ()
Month to date snowfall 0.0 0.0  
Since 1 June snowfall 0.0 0.0  
Since 1 July snowfall 74.2 51.4  
Snow Depth 0.00 in    
Sea Level Pressure  
Sea Level Pressure 30.00 in    
Wind  
Wind Speed 7 mph (NE)    
Max Wind Speed 14 mph    
Max Gust Speed 17 mph    
Visibility 9 miles    
Events Rain    
T = Trace of Precipitation, MM = Missing Value Source: NWS Daily Summary

Daily Weather History Graph

Daily Weather History Graph

Search for Another Location

Airport or City:

Trip Planner

Search our weather history database for the weather conditions in past years. The results will help you decide how hot, cold, wet, or windy it might be!

Date:

Astronomy

Jun. 06, 2013 Rise Set
Actual Time 5:08 AM CDT 8:34 PM CDT
Civil Twilight 4:32 AM CDT 9:10 PM CDT
Nautical Twilight 3:44 AM CDT 9:58 PM CDT
Astronomical Twilight 2:44 AM CDT 10:58 PM CDT
Moon 3:54 AM CDT (6/6) 6:52 PM CDT (6/6)
Length of Visible Light 16h 38m
Length of Day
15h 25m
Waning Crescent, 3% of the Moon is Illuminated
Jun 6
Waning Crescent
Jun 8
New
Jun 16
First Quarter
Jun 23
Full
Jun 29
Last Quarter

Hourly Weather History & Observations

Time (CDT) Temp. Dew Point Humidity Pressure Visibility Wind Dir Wind Speed Gust Speed Precip Events Conditions
12:53 AM 53.1 °F 51.1 °F 93% 30.02 in 10.0 mi ENE 5.8 mph - N/A   Overcast
1:53 AM 53.1 °F 48.9 °F 86% 30.01 in 9.0 mi ENE 4.6 mph - 0.02 in Rain Light Rain
2:53 AM 53.1 °F 48.9 °F 86% 30.01 in 9.0 mi NE 3.5 mph - 0.03 in Rain Light Rain
3:53 AM 51.1 °F 48.9 °F 92% 30.00 in 3.0 mi ENE 5.8 mph - 0.14 in Rain Rain
4:53 AM 51.1 °F 48.9 °F 92% 29.99 in 6.0 mi NE 5.8 mph - 0.09 in Rain Light Rain
5:27 AM 51.1 °F 48.9 °F 92% 29.98 in 7.0 mi NE 8.1 mph - 0.00 in   Overcast
5:53 AM 52.0 °F 48.9 °F 89% 30.00 in 9.0 mi NNE 6.9 mph - 0.00 in   Overcast
6:30 AM 52.0 °F 48.9 °F 89% 30.00 in 10.0 mi ENE 3.5 mph - 0.00 in   Overcast
6:53 AM 52.0 °F 48.9 °F 89% 30.01 in 10.0 mi NNE 3.5 mph - 0.00 in   Overcast
7:12 AM 52.0 °F 48.9 °F 89% 30.00 in 9.0 mi NE 4.6 mph - N/A   Overcast
7:53 AM 52.0 °F 50.0 °F 93% 30.01 in 4.0 mi NE 6.9 mph - 0.01 in Rain Light Rain
8:53 AM 52.0 °F 48.9 °F 89% 30.01 in 9.0 mi NE 8.1 mph - 0.01 in Rain Light Rain
9:53 AM 52.0 °F 48.9 °F 89% 30.02 in 7.0 mi ENE 6.9 mph - 0.00 in Rain Light Rain
10:44 AM 52.0 °F 48.9 °F 89% 30.01 in 6.0 mi East 4.6 mph - 0.01 in Rain Light Rain
10:53 AM 52.0 °F 48.9 °F 89% 30.02 in 9.0 mi East 4.6 mph - 0.01 in   Overcast
11:53 AM 54.0 °F 48.9 °F 83% 30.01 in 10.0 mi NE 8.1 mph - N/A   Overcast
12:53 PM 55.0 °F 48.9 °F 80% 30.01 in 10.0 mi NNE 9.2 mph - N/A   Overcast
1:53 PM 55.9 °F 48.9 °F 77% 30.01 in 10.0 mi NE 11.5 mph - N/A   Overcast
2:53 PM 55.0 °F 46.9 °F 74% 30.01 in 10.0 mi NNE 11.5 mph - N/A   Overcast
3:53 PM 55.9 °F 46.9 °F 72% 30.01 in 10.0 mi NNE 8.1 mph - N/A   Overcast
4:53 PM 55.9 °F 46.9 °F 72% 30.01 in 10.0 mi NNE 8.1 mph - N/A   Overcast
5:53 PM 57.0 °F 46.9 °F 69% 30.00 in 10.0 mi NNE 8.1 mph - N/A   Overcast
6:53 PM 55.9 °F 46.0 °F 69% 29.99 in 10.0 mi NNE 12.7 mph - N/A   Overcast
7:53 PM 55.0 °F 46.0 °F 72% 29.99 in 10.0 mi North 4.6 mph - 0.00 in   Mostly Cloudy
8:53 PM 54.0 °F 45.0 °F 72% 29.99 in 10.0 mi North 8.1 mph - N/A   Overcast
9:53 PM 55.0 °F 43.0 °F 64% 29.99 in 10.0 mi NE 5.8 mph - N/A   Overcast
10:53 PM 53.1 °F 46.0 °F 77% 29.99 in 10.0 mi North 6.9 mph - N/A   Overcast
11:53 PM 53.1 °F 44.1 °F 71% 29.99 in 10.0 mi North 6.9 mph - N/A   Overcast